ARIANE 42P R/B, 22079

Orbit data source: Space-Track

ARIANE 42P R/B, 22079 is space debris in LEO originally from a launch on Mon, 10 Aug 1992 UTC launched from the French Guiana (FRGUI). Debris objects in space refer to the collection of defunct objects orbiting the Earth. Examples of debris include non-operational satellites, rocket bodies, and fragments generated from explosions, collisions, or faulty payload assembly.

Loading next visibility...
Identifier
22079, 1992-052D
Orbit
LEO
Country
Flag of FRFR
Related business
Manufacturer
Ae/LesM
Mission
Spacecraft
Bus & Motor
ARIANE H10, Unknown motor
Mass
1,875 kg wet, 1,820 kg dry
Launch date (UTC)
1992-08-10 (34 years ago)
Launch vehicle
Unknown
Launch site
French Guiana (FRGUI)
Object type
Payload
Rocket body
Debris
Shape & HBR
Cyl, 6.0 m
Radar Cross Section
27.363 m², Large (>1 m²)

Expand to show TLE details & history
Last TLE update: 7 hours ago

TLE from 7 hours ago
0 ARIANE 42P R/B
1 22079U 92052D   26094.26762764 -.00000124  00000-0 -28593-3 0  9998
2 22079  66.0627  98.5985 0072322 332.1200 107.3072 12.77966325569941
Epoch: 2026-04-04T06:25Z
TLE epoch observation values (Epoch: 2026-04-04T06:25:23.028Z)
Latitude
64.35712°
Longitude
-123.38683°
Altitude
1,376.874 km
Speed
7.169 km/s
True Right ascension
11h 02m 11s
True Declination
64° 14' 00"
Sunlit
Object was in daylight at epoch
Visualization orbit readout
Latitude
Unknown
Longitude
Unknown
Altitude
Unknown
Speed
Unknown
Apparent Right ascension
Unknown
Apparent Declination
Unknown
Sunlit
N/A
Visualization observer readout
Local Sidereal Time
19:11:38
Azimuth
Unknown
Elevation
Unknown
Doppler factor
Unknown
Orbital elements
Apogee altitude
1,404.099 km
Perigee altitude
1,292.342 km
Semi-major axis
7,726.357 km
Eccentricity
0.00723
Inclination
66.0627°
RAAN
98.5985°
Arg. of periapsis
332.12°
True anomaly
108.09628°
Mean anomaly
107.3072°
Eccentric anomaly
107.70195°
Mean motion
3.19581 °/min
Orbital period
112.65 mins
BSTAR
-0.00028593
Loading maneuver chart data...
Computing Atmospheric mass density...
Loading historical data...
Loading historical data...
Loading historical data...
Loading historical data...
Loading historical data...
Loading historical data...
Loading historical data...

Documentation

Showing up to 5 results
|